ONEWEB-0064 (45433 NORAD) Tracking and Keplerian Element Data

This shows tracking and keplerian element data for the satellite.

Feedback or suggestion? Click here.




ElementValue
Catalog45433
NameONEWEB-0064
Epoch Orbit177
Epoch Day293.91673611
Epoch Year2020
RAAN72.6415
Inclination87.7979
Eccentricity0.0022115
Argument of Perigee261.5182
Mean Anonmoly255.7009
Mean Motion13.94237343
Decay Rate-0.00013155
L11 45433U 20020K 20293.91673611 -.00013155 00000-0 -99261-2 0 9999
L22 45433 87.7979 72.6415 0022115 261.5182 255.7009 13.94237343 1771

Live tracking and technical data element details for ONEWEB-0064 (NORAD 45433). ONEWEB-0064 can be tracked NOW for your location showing map with azimuth and elevation plus other details from your city location.

Track the satellite on the map from your city or location and see movement details for azimuth, elevation, latitude, longitude, range, height, and movement on the map or in text.







IsCatalogInMostPopularTable: catalog: 45433, numindb: 46
Update: records affected: 1



GetName: 45433 ONEWEB-0064

Hit Count: updated at: Tue, 20 Oct 2020 12:20:46 GMT